Regional Weather Roundup
Issued by NWS

Home | Current Version | Previous Version | Graphics & Text | Print | Product List | Glossary On
Versions: 1 2 3 4 5 6 7 8 9 10 11 12 13 14 15 16 17 18 19 20 21 22 23 24 25 26 27 28 29 30 31 32 33 34 35 36 37 38 39 40 41 42 43 44 45 46 47 48
000
ASUS45 KPSR 230410
RWRAZ

ARIZONA REGIONAL HOURLY WEATHER ROUNDUP
NATIONAL WEATHER SERVICE TUCSON AZ
900 PM MST THU JUN 22 2017

NOTE: FAIR INDICATES FEW OR NO CLOUDS BELOW 12,000 FEET WITH NO
SIGNIFICANT WEATHER AND/OR OBSTRUCTIONS TO VISIBILITY.

AZZ001>003-036-230500-
NORTHWEST ARIZONA

CITY           SKY/WX    TMP DP  RH WIND       PRES   REMARKS
BULLHEAD CITY  CLEAR    108  28   6 SE9       29.59R HX 100
KINGMAN        CLEAR     91  39  16 S9        29.87R
$$

AZZ004>008-015-016-018-230500-
NORTH CENTRAL ARIZONA

CITY           SKY/WX    TMP DP  RH WIND       PRES   REMARKS
GRAND CANYON   CLEAR     65  19  17 CALM      30.16R
PRESCOTT       CLEAR     86  30  13 SW12      30.03R
FLAGSTAFF      CLEAR     76  24  14 W6        30.19R
PAYSON         CLEAR     86  36  16 W8        30.07R
PAGE           MOCLDY    93  29  10 W5        29.88R HAZE
$$

AZZ009>014-017-230500-
NORTHEAST ARIZONA

CITY           SKY/WX    TMP DP  RH WIND       PRES   REMARKS
WINSLOW        PTCLDY    86  29  12 W10       29.97R
SAINT JOHNS    MOCLDY    89  29  11 W14       30.01R
WINDOW ROCK    CLEAR     74  20  13 CALM      30.09R
SHOW LOW       PTCLDY    75  36  23 SW8       30.13R
$$

AZZ023-230500-
GREATER PHOENIX AREA

CITY           SKY/WX    TMP DP  RH WIND       PRES   REMARKS
PHOENIX        PTCLDY   105  49  15 W14       29.65R HX 102
BUCKEYE        CLEAR     99  55  23 SW16G24   29.69R
LUKE AFB       CLEAR    103  55  20 SW16      29.66R HX 101
DEER VALLEY    CLEAR    102  46  15 SW12      29.69R
SCOTTSDALE     CLEAR    104  46  14 W13G20    29.70R HX 100
MESA-GATEWAY   CLEAR    100  48  17 SW9       29.69S
CHANDLER       CLEAR    102  46  15 SW12      29.67R
$$

AZZ027-028-230500-
SOUTHWEST MARICOPA COUNTY AND PINAL COUNTY

CITY           SKY/WX    TMP DP  RH WIND       PRES   REMARKS
CASA GRANDE    CLEAR    100  57  23 W14       29.70R
$$

AZZ503-504-507>509-230500-
SOUTHEAST ARIZONA

CITY           SKY/WX    TMP DP  RH WIND       PRES   REMARKS
TUCSON         PTCLDY    99  47  17 W9        29.84R
DAVIS-MONTHAN  CLEAR     98  41  13 NW9       29.82R
NOGALES        CLOUDY    87  53  31 E5        29.97R
SIERRA VISTA   CLOUDY    88  47  23 W16G25    30.02R
DOUGLAS        CLOUDY    88  44  21 W7        29.95R
SAFFORD        CLEAR     96  36  12 NW17      29.78R
$$

AZZ020-021-025-026-031-230500-
SOUTHWEST ARIZONA

CITY           SKY/WX    TMP DP  RH WIND       PRES   REMARKS
YUMA           CLEAR     92  63  38 S13       29.67R
$$

CAZ031-033-041-043-047-048-061-230500-
SOUTHERN CALIFORNIA

CITY           SKY/WX    TMP DP  RH WIND       PRES   REMARKS
DOWNTOWN L.A.  NOT AVBL
L.A. AIRPORT   MOCLDY    64  61  90 W8        29.85R
SAN DIEGO      CLOUDY    67  61  81 VRB7      29.88R
BURBANK        CLEAR     68  59  73 S6        29.84R
ONTARIO        CLEAR     72  60  66 W13       29.84R
RIVERSIDE      CLEAR     73  61  65 W8        29.84R
PALM SPRINGS   CLEAR    101  51  18 NW9       29.68R
EL CENTRO NAS  CLEAR     92  59  33 SE7       29.64R
IMPERIAL       CLEAR     94  63  35 SE13      29.62R
BLYTHE         CLEAR    101  61  26 S20       29.64R HX 102
NEEDLES        CLEAR    109  32   7 W12       29.63R HX 101
$$

NVZ020-UTZ003-230500-
SOUTHERN NEVADA-UTAH

CITY           SKY/WX    TMP DP  RH WIND       PRES   REMARKS
LAS VEGAS      PTCLDY   105  19   4 SW9       29.70R
SALT LAKE CITY CLEAR     78  41  26 N3        30.02R
$$

NMZ009-TXZ055-230500-
NEW MEXICO-WEST TEXAS

CITY           SKY/WX    TMP DP  RH WIND       PRES   REMARKS
ALBUQUERQUE    PTCLDY    90  24   9 N9        29.92R
EL PASO        MOCLDY   100  35  10 N14       29.79R
$$


........................KEY........................
SKY/WX - SKY CONDITION/WEATHER
TMP    - TEMPERATURE IN FAHRENHEIT
DP     - DEWPOINT IN FAHRENHEIT
RH     - RELATIVE HUMIDITY IN PERCENT
WIND   - DIRECTION AND SPEED IN MILES PER HOUR (MPH)
VRB    - VARIABLE WIND DIRECTION
PRES   - MEAN SEA LEVEL PRESSURE IN INCHES OF MERCURY
         F - FALLING PRESSURE   R - RISING PRESSURE
         S - STEADY PRESSURE
VSB    - VISIBILITY IN MILES
HX     - HEAT INDEX IN FAHRENHEIT
WCI    - WIND CHILL INDEX IN FAHRENHEIT
TC     - TEMPERATURE IN CELSIUS WHICH IS ALSO KNOWN AS
         TEMPERATURE IN CENTIGRADE
AFB    - AIR FORCE BASE
         LUKE AFB IS LUKE AIR FORCE BASE
         DAVIS-MONTHAN IS DAVIS-MONTHAN AIR FORCE BASE
NAS    - NAVAL AIR STATION
         EL CENTRO NAS IS EL CENTRO NAVAL AIR STATION
N/A    - NOT AVAILABLE





USA.gov is the U.S. government's official web portal to all federal, state and local government web resources and services.